Vertical_Velocity
1 -3 0 6 -1 1 -2 0 -1 -1 -1 -1 -1 -2 1 -0 -0 1 2 2 -2 3 1 1 0 -3 -1 1 1 -2 0 -1 -4 -5 -1 0 -2 -1 -1 -2 0 2 0 -0
-3 2 1 0 -3 -0 -0 -1 -2 -1 -1 -1 -1 1 -2 1 1 -1 -5 -3 -1 -3 2 2 2 -2 -4 -3 2 -0 1 0 -4 -1 -3 -1 1 -1 -1 3 -1 2 2 2
1 11 5 -1 0 -0 0 2 -1 -2 -1 0 -1 -1 -0 -1 1 2 1 -4 -4 -3 -1 1 3 -0 -2 1 -1 1 -1 1 -1 -1 0 -2 -0 -1 -1 0 3 -1 1 1
-2 -2 2 -1 -0 2 2 -0 -1 0 -2 -3 -3 -3 -2 -2 -1 1 1 3 2 5 -1 -1 1 3 -1 -1 1 1 1 2 0 -5 3 -1 1 -2 -1 -2 -1 0 -1 2
16 -1 4 -4 3 1 7 -1 -2 -2 -1 -3 1 -2 -2 0 4 3 4 0 0 -1 -0 2 0 2 -4 0 -0 -0 -2 3 1 1 -4 -2 1 0 -2 -1 -3 -1 1 -1
-1 2 -1 3 5 1 9 1 -0 -1 -0 -4 -2 -3 0 5 -5 -3 -1 -0 -0 -1 -0 -2 -1 -4 1 -1 3 -2 -1 1 2 -0 -0 -6 1 0 0 -2 -0 -0 1 -1
2 1 1 3 1 -2 -1 1 -1 -2 -2 -4 -1 -3 8 1 3 0 1 0 -0 -0 1 -1 -3 3 3 0 -1 -0 -1 -0 2 2 0 0 -2 3 -2 -0 -1 0 -1 2
5 -14 -1 5 -0 7 2 -2 -3 -8 -10 1 -1 -10 10 -1 -1 0 1 -2 -3 -3 -1 1 1 2 -1 2 -1 2 -1 -1 2 3 0 1 -5 -3 2 2 -2 -2 1 2
3 -10 3 3 7 3 -1 -15 10 1 -6 1 -5 -5 7 2 5 3 0 0 3 2 -0 -0 2 3 -1 2 6 2 0 -1 1 -3 2 2 -1 -5 -1 -1 0 1 -3 -1
-0 -2 4 8 4 -5 -5 10 1 -9 -11 -7 -5 -5 11 0 -2 -4 1 -1 -1 -3 1 1 0 2 -1 -4 -2 -5 -1 1 -2 -5 -4 1 0 -3 -5 -1 -2 -0 -1 1
6 6 6 4 -8 3 -1 -8 -11 -2 -1 1 4 -8 13 3 -1 2 4 2 -0 -0 -0 -0 -2 0 1 1 3 1 -3 -3 1 3 -1 1 -1 -1 -2 -2 -0 -1 0 -4
5 4 4 9 0 3 -0 3 4 -4 -7 -12 -13 -10 7 4 2 1 1 -1 -0 0 -1 1 1 -1 -2 1 2 3 4 2 -1 0 2 1 1 1 1 0 0 -1 -4 1
4 -4 8 3 -4 -10 -8 1 4 0 3 -7 -5 14 1 8 -0 5 2 5 0 2 0 1 2 1 7 1 1 2 -0 5 1 -1 1 2 1 3 4 0 1 1 -2 -1
2 -2 3 2 22 11 -4 -1 -2 0 -6 1 -9 -5 -2 9 1 9 6 3 1 4 6 2 -1 3 4 3 -1 2 -0 1 3 -1 0 1 3 4 1 -1 0 1 0 -1
-1 -2 -0 3 3 -1 -0 6 2 -6 9 -12 8 -11 11 7 4 -8 8 5 -2 2 3 -1 2 1 -2 1 -6 0 1 4 -2 1 3 4 0 -2 -2 5 4 1 3 1
3 1 -0 1 2 -0 0 3 2 2 -2 -1 -4 -7 -5 3 -1 2 -1 3 0 0 -1 -0 -4 -0 1 -2 7 1 -2 2 -1 -2 -4 -1 2 -2 2 -1 2 6 4 2
3 0 3 2 0 3 2 0 -1 -1 2 4 1 -5 5 -4 3 2 0 1 6 4 3 4 1 -2 -2 -5 8 -5 -2 -2 -2 2 0 -0 -4 2 -2 1 -1 -1 1 1
2 3 5 1 4 1 -12 0 -0 -4 0 0 2 -3 -1 -0 6 2 3 0 -2 2 4 -2 1 6 6 2 -3 -1 -5 23 -1 1 0 -5 -1 1 3 -2 1 -7 -3 -2
4 -5 1 3 3 -3 -1 -3 -8 -4 1 -1 1 -1 -8 4 2 -2 -3 2 0 -2 -1 -1 -3 -5 -3 4 -7 3 7 22 -3 -4 -2 2 2 -0 -5 -6 -5 -13 -3 0
4 2 4 2 -1 1 -5 3 2 3 -1 0 -2 1 2 2 -2 0 5 0 -5 1 5 3 1 7 -1 -2 2 6 3 -9 63 12 2 2 -3 4 2 2 1 -1 0 -1
1 -14 -1 -1 2 4 0 -2 3 -1 -10 -5 0 0 1 0 -2 5 -1 7 -4 -1 2 5 5 15 0 3 7 -0 9 12 4 2 4 6 -1 3 1 1 -0 1 2 4
2 4 1 -7 -6 -1 -6 1 -4 -3 -3 -0 -0 1 2 2 1 -2 -3 3 2 -1 7 2 1 4 4 10 5 8 7 5 -2 -13 5 2 -1 -5 -2 4 2 3 2 -1
2 -6 -4 -5 -5 -2 -3 -1 -4 -8 -4 -5 -2 -1 4 2 1 6 2 -0 2 2 8 9 6 7 10 5 6 6 8 4 8 2 2 4 7 -12 -7 2 -0 -0 1 2
2 2 -4 2 -4 -6 -8 -1 1 -12 -7 -1 -3 -1 2 5 3 1 2 1 0 3 8 2 5 4 2 11 3 3 2 -4 9 1 1 -5 -8 -4 2 -3 -1 -1 -2 -1
-2 7 2 -0 1 6 5 11 -2 9 0 1 -1 2 2 3 4 1 2 3 6 3 5 1 5 2 0 -0 2 -1 -1 0 -0 -2 -0 3 4 0 -5 -1 1 -2 -2 0
-1 5 1 0 4 6 12 16 14 15 10 8 7 3 2 2 3 1 3 4 -0 -2 -0 -2 0 2 5 2 2 -4 13 -4 1 2 -2 -1 2 2 1 1 1 -0 -3 0
Height
5863 5867 5873 5881 5884 5886 5889 5892 5894 5897 5899 5900 5904 5905 5906 5906 5907 5909 5912 5914 5916 5918 5921 5920 5922 5925 5927 5927 5931 5932 5934 5937 5939 5942 5943 5943 5945 5947 5948 5950 5951 5953 5954 5955
5857 5861 5870 5874 5877 5881 5885 5888 5890 5893 5895 5898 5901 5904 5904 5905 5905 5906 5906 5910 5913 5916 5921 5921 5922 5923 5925 5927 5929 5932 5934 5936 5940 5942 5945 5946 5946 5947 5948 5949 5951 5952 5954 5955
5853 5863 5863 5865 5869 5874 5879 5884 5886 5889 5892 5895 5898 5900 5902 5902 5902 5903 5904 5907 5910 5915 5917 5920 5923 5922 5923 5927 5928 5931 5933 5936 5938 5942 5945 5946 5947 5947 5947 5949 5950 5952 5954 5956
5846 5853 5854 5859 5864 5869 5874 5879 5880 5884 5887 5890 5894 5897 5898 5900 5900 5900 5902 5904 5908 5913 5915 5917 5920 5923 5922 5924 5928 5930 5932 5934 5937 5940 5943 5945 5946 5946 5946 5947 5950 5952 5955 5957
5840 5846 5847 5854 5860 5864 5871 5874 5876 5878 5881 5887 5891 5894 5896 5898 5898 5897 5899 5901 5903 5907 5911 5915 5918 5918 5921 5922 5925 5928 5930 5932 5935 5937 5942 5945 5946 5945 5945 5946 5949 5951 5954 5956
5829 5836 5839 5848 5853 5856 5863 5867 5871 5874 5877 5882 5886 5890 5893 5895 5894 5895 5895 5896 5900 5902 5905 5910 5913 5915 5918 5920 5922 5926 5929 5930 5932 5935 5939 5944 5946 5947 5946 5946 5949 5951 5953 5955
5819 5824 5830 5837 5843 5847 5853 5859 5864 5867 5871 5877 5882 5886 5891 5892 5894 5894 5894 5896 5897 5899 5901 5904 5908 5913 5917 5919 5921 5924 5926 5929 5931 5933 5936 5941 5944 5946 5947 5948 5948 5950 5953 5956
5810 5814 5822 5830 5835 5842 5846 5853 5856 5859 5865 5876 5878 5882 5887 5888 5890 5892 5893 5894 5896 5896 5897 5900 5904 5909 5914 5916 5919 5921 5923 5925 5929 5930 5933 5937 5941 5942 5945 5948 5949 5951 5952 5955
5798 5805 5815 5821 5829 5833 5837 5841 5852 5855 5860 5868 5871 5880 5883 5885 5888 5889 5891 5893 5896 5897 5897 5897 5898 5903 5909 5911 5915 5916 5919 5921 5924 5927 5929 5934 5937 5941 5943 5946 5947 5949 5950 5954
5787 5796 5803 5811 5816 5822 5828 5840 5842 5844 5849 5857 5864 5872 5879 5882 5884 5886 5889 5891 5893 5895 5898 5898 5898 5899 5904 5908 5911 5913 5917 5919 5921 5925 5927 5930 5932 5936 5940 5943 5946 5947 5948 5950
5778 5785 5794 5799 5804 5813 5820 5825 5830 5836 5842 5849 5859 5867 5876 5878 5880 5883 5887 5889 5891 5893 5896 5898 5901 5902 5904 5907 5911 5914 5915 5919 5922 5925 5927 5929 5931 5933 5936 5940 5941 5943 5945 5947
5768 5775 5782 5791 5796 5804 5811 5820 5825 5828 5833 5842 5851 5863 5868 5871 5876 5881 5884 5886 5888 5890 5892 5895 5898 5901 5902 5905 5909 5911 5913 5917 5919 5922 5925 5927 5928 5929 5932 5935 5939 5940 5943 5945
5759 5764 5770 5778 5785 5792 5798 5807 5814 5820 5827 5829 5840 5855 5862 5868 5870 5877 5881 5884 5887 5889 5891 5893 5896 5899 5903 5905 5907 5909 5912 5912 5914 5917 5920 5923 5925 5927 5929 5930 5933 5936 5938 5940
5749 5756 5762 5771 5782 5785 5792 5799 5806 5811 5815 5822 5830 5846 5852 5859 5863 5868 5875 5878 5881 5885 5889 5891 5893 5896 5898 5901 5904 5906 5908 5909 5911 5914 5916 5918 5919 5922 5924 5925 5926 5929 5931 5934
5743 5749 5755 5761 5768 5774 5782 5789 5796 5800 5808 5812 5824 5837 5847 5853 5857 5858 5866 5871 5875 5879 5881 5885 5888 5891 5893 5896 5898 5902 5904 5906 5908 5911 5913 5914 5914 5916 5917 5919 5921 5922 5924 5926
5738 5743 5747 5753 5760 5766 5773 5779 5786 5792 5797 5802 5810 5823 5833 5840 5847 5853 5858 5864 5868 5871 5875 5880 5883 5885 5887 5888 5891 5893 5897 5900 5902 5903 5906 5908 5909 5910 5912 5914 5915 5917 5918 5920
5732 5737 5742 5746 5752 5760 5764 5769 5775 5782 5790 5795 5802 5811 5823 5829 5836 5844 5849 5855 5861 5864 5869 5874 5878 5880 5881 5881 5883 5886 5889 5892 5895 5896 5898 5900 5901 5904 5906 5906 5907 5909 5912 5913
5723 5729 5735 5740 5746 5751 5754 5761 5767 5773 5780 5786 5792 5800 5811 5819 5827 5833 5839 5845 5850 5856 5860 5865 5872 5875 5877 5876 5876 5879 5881 5883 5886 5889 5890 5893 5894 5894 5897 5902 5903 5902 5905 5907
5713 5720 5728 5734 5739 5744 5749 5755 5761 5766 5773 5777 5783 5789 5799 5808 5816 5822 5828 5835 5840 5846 5851 5855 5860 5864 5867 5870 5870 5870 5870 5874 5876 5879 5883 5885 5887 5888 5889 5892 5895 5898 5900 5901
5702 5711 5720 5728 5733 5737 5744 5749 5754 5760 5763 5768 5774 5781 5788 5795 5803 5811 5818 5824 5829 5835 5840 5845 5849 5853 5858 5860 5861 5862 5859 5862 5860 5869 5873 5877 5880 5883 5885 5888 5890 5892 5895 5896
5692 5700 5710 5717 5725 5731 5739 5744 5748 5751 5758 5762 5767 5772 5777 5785 5792 5801 5806 5811 5817 5824 5829 5833 5838 5842 5847 5849 5851 5852 5854 5854 5857 5862 5862 5867 5872 5875 5877 5880 5883 5885 5888 5890
5687 5694 5702 5710 5718 5725 5732 5738 5742 5746 5750 5756 5760 5764 5769 5775 5782 5789 5795 5800 5806 5812 5817 5822 5826 5830 5834 5839 5841 5843 5844 5845 5848 5849 5851 5856 5861 5864 5867 5870 5874 5876 5878 5881
5682 5690 5697 5705 5711 5718 5724 5732 5736 5740 5744 5749 5752 5756 5759 5765 5771 5777 5783 5788 5793 5798 5804 5809 5814 5818 5823 5827 5830 5833 5835 5837 5839 5841 5846 5851 5851 5853 5858 5862 5865 5866 5868 5872
5678 5686 5693 5700 5706 5712 5718 5723 5728 5732 5737 5740 5745 5748 5751 5755 5760 5766 5771 5777 5781 5786 5791 5797 5801 5805 5809 5813 5816 5820 5825 5826 5826 5832 5835 5838 5840 5844 5848 5851 5854 5856 5858 5861
5676 5683 5689 5695 5701 5706 5711 5715 5721 5725 5726 5732 5735 5739 5741 5746 5749 5754 5760 5765 5771 5775 5779 5783 5787 5791 5796 5799 5804 5807 5810 5815 5819 5821 5825 5829 5832 5836 5840 5842 5844 5846 5848 5851
5675 5680 5685 5691 5696 5700 5706 5710 5713 5716 5718 5720 5724 5728 5732 5735 5739 5744 5747 5752 5757 5761 5764 5768 5772 5776 5781 5785 5790 5793 5795 5798 5802 5806 5810 5816 5820 5824 5827 5831 5834 5836 5838 5841